| time (UTC) | temp C | wind direction | speed KPH | gust KPH | rain 1hr cm | rain 24hr cm | rain mn cm | humidity % | barometer mb |
| 20260509174042 | 31 | 352 | 0.0 | 6.4 | 0.00 | 0.00 | 0.00 | 48 | 1009.4 |
| 20260509173542 | 31 | 237 | 1.6 | 8.0 | 0.00 | 0.00 | 0.00 | 48 | 1009.5 |
| 20260509173042 | 30 | 283 | 1.6 | 8.0 | 0.00 | 0.00 | 0.00 | 51 | 1009.6 |
| 20260509172542 | 31 | 243 | 1.6 | 8.0 | 0.00 | 0.00 | 0.00 | 48 | 1009.6 |
| 20260509172042 | 31 | 273 | 1.6 | 8.0 | 0.00 | 0.00 | 0.00 | 51 | 1009.6 |
| 20260509171542 | 30 | 258 | 1.6 | 8.0 | 0.00 | 0.00 | 0.00 | 48 | 1009.7 |
| 20260509171041 | 30 | 169 | 1.6 | 6.4 | 0.00 | 0.00 | 0.00 | 48 | 1009.7 |
| 20260509170542 | 30 | 295 | 1.6 | 9.7 | 0.00 | 0.00 | 0.00 | 47 | 1009.8 |
| 20260509170042 | 30 | 224 | 1.6 | 11.3 | 0.00 | 0.00 | 0.00 | 47 | 1009.8 |
| 20260509165541 | 30 | 257 | 1.6 | 11.3 | 0.00 | 0.00 | 0.00 | 47 | 1009.9 |
| 20260509165040 | 30 | 141 | 1.6 | 6.4 | 0.00 | 0.00 | 0.00 | 48 | 1009.9 |
| 20260509164539 | 30 | 110 | 0.0 | 6.4 | 0.00 | 0.00 | 0.00 | 46 | 1010.0 |
| 20260509164036 | 30 | 103 | 0.0 | 4.8 | 0.00 | 0.00 | 0.00 | 48 | 1010.0 |
| 20260509163537 | 30 | 177 | 1.6 | 9.7 | 0.00 | 0.00 | 0.00 | 52 | 1010.0 |
| 20260509163037 | 30 | 263 | 1.6 | 9.7 | 0.00 | 0.00 | 0.00 | 50 | 1010.0 |
| 20260509162536 | 30 | 263 | 1.6 | 8.0 | 0.00 | 0.00 | 0.00 | 49 | 1010.0 |
| 20260509162042 | 29 | 142 | 3.2 | 11.3 | 0.00 | 0.00 | 0.00 | 51 | 1009.8 |
| 20260509162037 | 29 | 242 | 1.6 | 8.0 | 0.00 | 0.00 | 0.00 | 51 | 1009.9 |
| 20260509161035 | 29 | 223 | 1.6 | 11.3 | 0.00 | 0.00 | 0.00 | 53 | 1009.9 |
| 20260509160535 | 28 | 110 | 1.6 | 9.7 | 0.00 | 0.00 | 0.00 | 53 | 1009.9 |
| 20260509160035 | 28 | 257 | 1.6 | 9.7 | 0.00 | 0.00 | 0.00 | 54 | 1009.9 |
| 20260509155534 | 28 | 219 | 3.2 | 8.0 | 0.00 | 0.00 | 0.00 | 54 | 1009.9 |
| 20260509155033 | 28 | 105 | 3.2 | 9.7 | 0.00 | 0.00 | 0.00 | 54 | 1009.9 |
| 20260509154534 | 28 | 293 | 1.6 | 9.7 | 0.00 | 0.00 | 0.00 | 53 | 1009.8 |
| 20260509154031 | 28 | 233 | 1.6 | 8.0 | 0.00 | 0.00 | 0.00 | 53 | 1009.8 |
| 20260509153532 | 28 | 277 | 3.2 | 9.7 | 0.00 | 0.00 | 0.00 | 56 | 1009.7 |
| 20260509153034 | 27 | 214 | 3.2 | 12.9 | 0.00 | 0.00 | 0.00 | 55 | 1009.8 |
| 20260509153030 | 27 | 345 | 4.8 | 14.5 | 0.00 | 0.00 | 0.00 | 57 | 1009.7 |
| 20260509152029 | 27 | 301 | 4.8 | 14.5 | 0.00 | 0.00 | 0.00 | 57 | 1009.8 |
| 20260509151527 | 27 | 295 | 3.2 | 14.5 | 0.00 | 0.00 | 0.00 | 57 | 1009.8 |
| 20260509151028 | 27 | 265 | 1.6 | 8.0 | 0.00 | 0.00 | 0.00 | 59 | 1009.9 |
| 20260509150526 | 26 | 35 | 3.2 | 9.7 | 0.00 | 0.00 | 0.00 | 61 | 1009.9 |
| 20260509150026 | 26 | 269 | 3.2 | 12.9 | 0.00 | 0.00 | 0.00 | 62 | 1009.9 |
| 20260509145526 | 26 | 257 | 4.8 | 12.9 | 0.00 | 0.00 | 0.00 | 63 | 1010.0 |
| 20260509145026 | 26 | 280 | 4.8 | 11.3 | 0.00 | 0.00 | 0.00 | 63 | 1010.0 |
| 20260509144531 | 26 | 32 | 1.6 | 8.0 | 0.00 | 0.00 | 0.00 | 63 | 1009.9 |
| 20260509144527 | 26 | 271 | 3.2 | 11.3 | 0.00 | 0.00 | 0.00 | 62 | 1009.9 |
| 20260509143525 | 26 | 264 | 1.6 | 14.5 | 0.00 | 0.00 | 0.00 | 65 | 1009.9 |
| 20260509143025 | 26 | 287 | 3.2 | 14.5 | 0.00 | 0.00 | 0.00 | 65 | 1009.9 |
| 20260509142525 | 26 | 258 | 3.2 | 11.3 | 0.00 | 0.00 | 0.00 | 65 | 1009.9 |
| 20260509142023 | 26 | 207 | 1.6 | 9.7 | 0.00 | 0.00 | 0.00 | 64 | 1009.9 |
| 20260509141529 | 26 | 283 | 1.6 | 9.7 | 0.00 | 0.00 | 0.00 | 66 | 1009.8 |
| 20260509141525 | 26 | 285 | 1.6 | 9.7 | 0.00 | 0.00 | 0.00 | 66 | 1009.9 |
| 20260509140524 | 26 | 256 | 1.6 | 9.7 | 0.00 | 0.00 | 0.00 | 68 | 1009.9 |
| 20260509140024 | 25 | 276 | 0.0 | 4.8 | 0.00 | 0.00 | 0.00 | 74 | 1009.9 |
| 20260509135523 | 25 | 290 | 1.6 | 4.8 | 0.00 | 0.00 | 0.00 | 75 | 1009.9 |
| 20260509135023 | 24 | 290 | 1.6 | 11.3 | 0.00 | 0.00 | 0.00 | 76 | 1009.9 |
| 20260509134522 | 24 | 287 | 3.2 | 11.3 | 0.00 | 0.00 | 0.00 | 77 | 1009.8 |
| 20260509134019 | 24 | 297 | 1.6 | 11.3 | 0.00 | 0.00 | 0.00 | 77 | 1009.8 |
| 20260509133523 | 24 | 276 | 1.6 | 6.4 | 0.00 | 0.00 | 0.00 | 78 | 1009.7 |
| 20260509133519 | 24 | 211 | 1.6 | 11.3 | 0.00 | 0.00 | 0.00 | 77 | 1009.8 |
| 20260509133134 | 23 | 254 | 1.6 | 6.4 | 0.00 | 0.00 | 0.00 | 79 | 1009.7 |
| 20260509132021 | 23 | 276 | 1.6 | 4.8 | 0.00 | 0.00 | 0.00 | 81 | 1009.7 |
| 20260509131519 | 23 | 112 | 0.0 | 4.8 | 0.00 | 0.00 | 0.00 | 82 | 1009.7 |
| 20260509131019 | 22 | 18 | 1.6 | 6.4 | 0.00 | 0.00 | 0.00 | 83 | 1009.7 |
| 20260509130519 | 22 | 243 | 1.6 | 6.4 | 0.00 | 0.00 | 0.00 | 84 | 1009.7 |
| 20260509130018 | 22 | 305 | 1.6 | 9.7 | 0.00 | 0.00 | 0.00 | 85 | 1009.7 |
| 20260509125521 | 21 | 242 | 1.6 | 8.0 | 0.00 | 0.00 | 0.00 | 85 | 1009.7 |
| 20260509125517 | 21 | 288 | 0.0 | 9.7 | 0.00 | 0.00 | 0.00 | 84 | 1009.7 |
| 20260509124516 | 21 | 234 | 1.6 | 8.0 | 0.00 | 0.00 | 0.00 | 84 | 1009.7 |
| 20260509124015 | 21 | 295 | 0.0 | 4.8 | 0.00 | 0.00 | 0.00 | 84 | 1009.7 |
| 20260509123517 | 21 | 292 | 0.0 | 1.6 | 0.00 | 0.00 | 0.00 | 84 | 1009.7 |
| 20260509123015 | 20 | 300 | 1.6 | 8.0 | 0.00 | 0.00 | 0.00 | 83 | 1009.7 |
| 20260509122517 | 20 | 267 | 1.6 | 9.7 | 0.00 | 0.00 | 0.00 | 83 | 1009.6 |
| 20260509122016 | 20 | 252 | 1.6 | 9.7 | 0.00 | 0.00 | 0.00 | 83 | 1009.6 |
| 20260509121521 | 20 | 292 | 1.6 | 6.4 | 0.00 | 0.00 | 0.00 | 83 | 1009.5 |
| 20260509121516 | 20 | 229 | 1.6 | 6.4 | 0.00 | 0.00 | 0.00 | 83 | 1009.5 |
| 20260509120516 | 20 | 213 | 1.6 | 6.4 | 0.00 | 0.00 | 0.00 | 84 | 1009.5 |
| 20260509120016 | 20 | 291 | 1.6 | 6.4 | 0.00 | 0.00 | 0.00 | 84 | 1009.5 |
| 20260509115521 | 20 | 230 | 0.0 | 4.8 | 0.00 | 0.00 | 0.00 | 85 | 1009.3 |
| 20260509115516 | 20 | 287 | 1.6 | 6.4 | 0.00 | 0.00 | 0.00 | 84 | 1009.4 |
| 20260509115130 | 20 | 269 | 0.0 | 4.8 | 0.00 | 0.00 | 0.00 | 85 | 1009.2 |
| 20260509114017 | 20 | 290 | 1.6 | 6.4 | 0.00 | 0.00 | 0.00 | 85 | 1009.2 |
| 20260509113515 | 20 | 306 | 0.0 | 6.4 | 0.00 | 0.00 | 0.00 | 85 | 1009.1 |
| 20260509113016 | 20 | 299 | 0.0 | 3.2 | 0.00 | 0.00 | 0.00 | 84 | 1009.0 |
| 20260509112515 | 20 | 253 | 0.0 | 3.2 | 0.00 | 0.00 | 0.00 | 84 | 1009.0 |
| 20260509112021 | 20 | 289 | 0.0 | 1.6 | 0.00 | 0.00 | 0.00 | 83 | 1008.7 |
| 20260509112016 | 20 | 285 | 0.0 | 1.6 | 0.00 | 0.00 | 0.00 | 83 | 1008.7 |
| 20260509111016 | 20 | 285 | 0.0 | 1.6 | 0.00 | 0.00 | 0.00 | 83 | 1008.6 |
| 20260509110515 | 20 | 290 | 0.0 | 0.0 | 0.00 | 0.00 | 0.00 | 83 | 1008.3 |
| 20260509110016 | 20 | 290 | 0.0 | 1.6 | 0.00 | 0.00 | 0.00 | 83 | 1008.4 |
| 20260509105516 | 20 | 290 | 0.0 | 1.6 | 0.00 | 0.00 | 0.00 | 82 | 1008.3 |
| 20260509105017 | 20 | 235 | 0.0 | 0.0 | 0.00 | 0.00 | 0.00 | 82 | 1008.2 |
| 20260509104519 | 20 | 292 | 0.0 | 3.2 | 0.00 | 0.00 | 0.00 | 81 | 1008.4 |
| 20260509104515 | 20 | 276 | 0.0 | 3.2 | 0.00 | 0.00 | 0.00 | 82 | 1008.3 |
| 20260509104128 | 21 | 230 | 0.0 | 3.2 | 0.00 | 0.00 | 0.00 | 81 | 1008.3 |
| 20260509103630 | 21 | 305 | 0.0 | 3.2 | 0.00 | 0.00 | 0.00 | 80 | 1008.3 |
| 20260509102515 | 21 | 255 | 0.0 | 0.0 | 0.00 | 0.00 | 0.00 | 79 | 1008.2 |
| 20260509102017 | 21 | 253 | 0.0 | 6.4 | 0.00 | 0.00 | 0.00 | 79 | 1008.2 |
| 20260509101515 | 21 | 261 | 0.0 | 6.4 | 0.00 | 0.00 | 0.00 | 78 | 1008.2 |
| 20260509101016 | 21 | 197 | 1.6 | 4.8 | 0.00 | 0.00 | 0.00 | 79 | 1008.3 |
| 20260509100516 | 21 | 236 | 1.6 | 6.4 | 0.00 | 0.00 | 0.00 | 79 | 1008.2 |
| 20260509100016 | 21 | 286 | 0.0 | 6.4 | 0.00 | 0.00 | 0.00 | 80 | 1008.1 |
| 20260509095513 | 21 | 278 | 0.0 | 1.6 | 0.00 | 0.00 | 0.00 | 81 | 1007.9 |
| 20260509095013 | 21 | 248 | 0.0 | 0.0 | 0.00 | 0.00 | 0.00 | 82 | 1007.8 |
| 20260509094513 | 21 | 248 | 0.0 | 0.0 | 0.00 | 0.00 | 0.00 | 82 | 1007.5 |
| 20260509094013 | 21 | 248 | 0.0 | 0.0 | 0.00 | 0.00 | 0.00 | 83 | 1007.6 |
| 20260509093515 | 21 | 248 | 0.0 | 0.0 | 0.00 | 0.00 | 0.00 | 83 | 1007.4 |
| 20260509093511 | 21 | 248 | 0.0 | 0.0 | 0.00 | 0.00 | 0.00 | 83 | 1007.3 |
| 20260509092511 | 21 | 248 | 0.0 | 8.0 | 0.00 | 0.00 | 0.00 | 83 | 1007.2 |
| 20260509092012 | 21 | 248 | 0.0 | 8.0 | 0.00 | 0.00 | 0.00 | 84 | 1007.3 |
| 20260509091514 | 21 | 274 | 1.6 | 8.0 | 0.00 | 0.00 | 0.00 | 84 | 1007.2 |
| 20260509091510 | 21 | 277 | 0.0 | 6.4 | 0.00 | 0.00 | 0.00 | 84 | 1007.3 |
| 20260509090509 | 21 | 122 | 1.6 | 9.7 | 0.00 | 0.00 | 0.00 | 84 | 1007.0 |
| 20260509090014 | 21 | 311 | 1.6 | 9.7 | 0.00 | 0.00 | 0.00 | 83 | 1006.5 |
| 20260509090009 | 21 | 221 | 1.6 | 9.7 | 0.00 | 0.00 | 0.00 | 83 | 1006.0 |
| 20260509085007 | 21 | 267 | 1.6 | 9.7 | 0.00 | 0.00 | 0.00 | 83 | 1006.2 |
| 20260509084507 | 21 | 253 | 1.6 | 8.0 | 0.00 | 0.00 | 0.00 | 82 | 1006.2 |
| 20260509084004 | 21 | 226 | 1.6 | 8.0 | 0.00 | 0.00 | 0.00 | 82 | 1006.2 |
| 20260509083506 | 21 | 170 | 0.0 | 8.0 | 0.00 | 0.00 | 0.00 | 82 | 1006.1 |
| 20260509083119 | 21 | 158 | 1.6 | 8.0 | 0.00 | 0.00 | 0.00 | 81 | 1005.6 |
| 20260509083009 | 21 | 213 | 1.6 | 9.7 | 0.00 | 0.00 | 0.00 | 81 | 1006.0 |
| 20260509083005 | 21 | 225 | 1.6 | 9.7 | 0.00 | 0.00 | 0.00 | 82 | 1006.5 |
| 20260509081505 | 21 | 229 | 1.6 | 12.9 | 0.00 | 0.00 | 0.00 | 81 | 1006.0 |
| 20260509081005 | 21 | 212 | 0.0 | 12.9 | 0.00 | 0.00 | 0.00 | 81 | 1006.3 |
| 20260509080504 | 21 | 212 | 1.6 | 6.4 | 0.00 | 0.00 | 0.00 | 81 | 1006.6 |
| 20260509080004 | 21 | 214 | 1.6 | 6.4 | 0.00 | 0.00 | 0.00 | 81 | 1007.2 |
| 20260509075504 | 21 | 235 | 0.0 | 8.0 | 0.00 | 0.00 | 0.00 | 81 | 1007.6 |
| 20260509075004 | 21 | 188 | 0.0 | 8.0 | 0.00 | 0.00 | 0.00 | 82 | 1007.9 |
| 20260509074503 | 21 | 216 | 0.0 | 4.8 | 0.00 | 0.00 | 0.00 | 82 | 1008.3 |
| 20260509074003 | 21 | 163 | 0.0 | 3.2 | 0.00 | 0.00 | 0.00 | 82 | 1008.6 |
| 20260509073506 | 21 | 252 | 1.6 | 9.7 | 0.00 | 0.00 | 0.00 | 82 | 1008.7 |
| 20260509073502 | 21 | 210 | 1.6 | 9.7 | 0.00 | 0.00 | 0.00 | 82 | 1008.9 |
| 20260509073115 | 21 | 214 | 0.0 | 4.8 | 0.00 | 0.00 | 0.00 | 83 | 1009.0 |
| 20260509072002 | 21 | 241 | 0.0 | 4.8 | 0.00 | 0.00 | 0.00 | 83 | 1009.1 |
| 20260509071500 | 21 | 231 | 1.6 | 4.8 | 0.00 | 0.00 | 0.00 | 83 | 1009.3 |
| 20260509071002 | 21 | 299 | 1.6 | 6.4 | 0.00 | 0.00 | 0.00 | 82 | 1009.6 |
| 20260509070500 | 21 | 238 | 1.6 | 6.4 | 0.00 | 0.00 | 0.00 | 82 | 1009.6 |
| 20260509070003 | 21 | 257 | 0.0 | 4.8 | 0.00 | 0.00 | 0.00 | 81 | 1009.9 |
| 20260509065959 | 21 | 233 | 0.0 | 4.8 | 0.00 | 0.00 | 0.00 | 82 | 1009.8 |
| 20260509064958 | 21 | 243 | 0.0 | 4.8 | 0.00 | 0.00 | 0.00 | 79 | 1010.3 |
| 20260509064459 | 21 | 219 | 0.0 | 3.2 | 0.00 | 0.00 | 0.00 | 80 | 1010.4 |
| 20260509063959 | 21 | 216 | 0.0 | 3.2 | 0.00 | 0.00 | 0.00 | 80 | 1010.3 |
| 20260509063459 | 21 | 213 | 0.0 | 3.2 | 0.00 | 0.00 | 0.00 | 80 | 1010.0 |
| 20260509062959 | 21 | 226 | 0.0 | 3.2 | 0.00 | 0.00 | 0.00 | 80 | 1010.0 |
| 20260509062459 | 20 | 248 | 0.0 | 0.0 | 0.00 | 0.00 | 0.00 | 81 | 1010.2 |
| 20260509061958 | 21 | 248 | 0.0 | 0.0 | 0.00 | 0.00 | 0.00 | 82 | 1010.1 |
| 20260509061459 | 21 | 248 | 0.0 | 0.0 | 0.00 | 0.00 | 0.00 | 83 | 1010.2 |
| 20260509061000 | 21 | 248 | 0.0 | 0.0 | 0.00 | 0.00 | 0.00 | 83 | 1010.2 |
| 20260509060458 | 21 | 248 | 0.0 | 0.0 | 0.00 | 0.00 | 0.00 | 83 | 1010.2 |
| 20260509055957 | 21 | 248 | 0.0 | 0.0 | 0.00 | 0.00 | 0.00 | 83 | 1010.2 |
| 20260509055500 | 21 | 248 | 0.0 | 0.0 | 0.00 | 0.00 | 0.00 | 84 | 1010.2 |
| 20260509055456 | 21 | 248 | 0.0 | 0.0 | 0.00 | 0.00 | 0.00 | 83 | 1010.0 |
| 20260509055114 | 21 | 248 | 0.0 | 0.0 | 0.00 | 0.00 | 0.00 | 84 | 1010.2 |
| 20260509055110 | 21 | 248 | 0.0 | 0.0 | 0.00 | 0.00 | 0.00 | 84 | 1010.4 |
| 20260509054109 | 21 | 248 | 0.0 | 0.0 | 0.00 | 0.00 | 0.00 | 85 | 1010.4 |
| 20260509052957 | 21 | 248 | 0.0 | 0.0 | 0.00 | 0.00 | 0.00 | 85 | 1010.4 |
| 20260509052500 | 21 | 248 | 0.0 | 0.0 | 0.00 | 0.00 | 0.00 | 85 | 1010.6 |
| 20260509052454 | 21 | 248 | 0.0 | 0.0 | 0.00 | 0.00 | 0.00 | 85 | 1010.5 |
| 20260509052114 | 21 | 248 | 0.0 | 1.6 | 0.00 | 0.00 | 0.00 | 85 | 1010.8 |
| 20260509052108 | 21 | 248 | 0.0 | 1.6 | 0.00 | 0.00 | 0.00 | 85 | 1010.6 |
| 20260509050454 | 21 | 288 | 0.0 | 1.6 | 0.00 | 0.00 | 0.00 | 85 | 1010.2 |
| 20260509045956 | 21 | 245 | 0.0 | 0.0 | 0.00 | 0.00 | 0.00 | 84 | 1009.7 |
| 20260509045454 | 22 | 245 | 0.0 | 0.0 | 0.00 | 0.00 | 0.00 | 84 | 1009.7 |
| 20260509044958 | 22 | 245 | 0.0 | 4.8 | 0.00 | 0.00 | 0.00 | 84 | 1009.6 |
| 20260509044954 | 22 | 245 | 0.0 | 1.6 | 0.00 | 0.00 | 0.00 | 84 | 1009.7 |
| 20260509044609 | 22 | 242 | 0.0 | 4.8 | 0.00 | 0.00 | 0.00 | 84 | 1009.5 |
| 20260509043455 | 22 | 207 | 0.0 | 4.8 | 0.00 | 0.00 | 0.00 | 84 | 1009.4 |
| 20260509042959 | 22 | 195 | 0.0 | 9.7 | 0.00 | 0.00 | 0.00 | 84 | 1009.0 |
| 20260509042954 | 22 | 166 | 0.0 | 9.7 | 0.00 | 0.00 | 0.00 | 84 | 1009.3 |
| 20260509041956 | 22 | 228 | 0.0 | 3.2 | 0.00 | 0.00 | 0.00 | 84 | 1009.1 |
| 20260509041456 | 22 | 251 | 0.0 | 3.2 | 0.00 | 0.00 | 0.00 | 83 | 1009.2 |
| 20260509040956 | 22 | 219 | 0.0 | 1.6 | 0.00 | 0.00 | 0.00 | 83 | 1009.2 |
| 20260509040454 | 22 | 225 | 0.0 | 1.6 | 0.00 | 0.00 | 0.00 | 83 | 1009.3 |
| 20260509035958 | 22 | 37 | 0.0 | 0.0 | 0.00 | 0.00 | 0.00 | 82 | 1009.4 |
| 20260509035954 | 22 | 38 | 0.0 | 0.0 | 0.00 | 0.00 | 0.00 | 82 | 1009.4 |
| 20260509034956 | 22 | 37 | 0.0 | 0.0 | 0.00 | 0.00 | 0.00 | 82 | 1009.4 |
| 20260509034455 | 22 | 37 | 0.0 | 0.0 | 0.00 | 0.00 | 0.00 | 82 | 1009.6 |
| 20260509033956 | 22 | 37 | 0.0 | 0.0 | 0.00 | 0.00 | 0.00 | 82 | 1009.6 |
| 20260509033455 | 22 | 37 | 0.0 | 0.0 | 0.00 | 0.00 | 0.00 | 82 | 1009.6 |
| 20260509032956 | 22 | 37 | 0.0 | 0.0 | 0.00 | 0.00 | 0.00 | 82 | 1009.5 |
| 20260509032454 | 22 | 37 | 0.0 | 1.6 | 0.00 | 0.00 | 0.00 | 82 | 1009.4 |
| 20260509031955 | 22 | 37 | 0.0 | 1.6 | 0.00 | 0.00 | 0.00 | 82 | 1009.1 |
| 20260509031454 | 22 | 141 | 0.0 | 1.6 | 0.00 | 0.00 | 0.00 | 82 | 1008.7 |
| 20260509030955 | 22 | 37 | 0.0 | 4.8 | 0.00 | 0.00 | 0.00 | 82 | 1008.6 |
| 20260509030454 | 22 | 0 | 0.0 | 4.8 | 0.00 | 0.00 | 0.00 | 82 | 1008.5 |
| 20260509025954 | 22 | 69 | 0.0 | 0.0 | 0.00 | 0.00 | 0.00 | 82 | 1008.4 |
| 20260509025455 | 22 | 68 | 0.0 | 3.2 | 0.00 | 0.00 | 0.00 | 82 | 1008.4 |
| 20260509024956 | 22 | 169 | 0.0 | 3.2 | 0.00 | 0.00 | 0.00 | 82 | 1008.4 |
| 20260509024455 | 22 | 233 | 0.0 | 3.2 | 0.00 | 0.00 | 0.00 | 82 | 1008.2 |
| 20260509023954 | 22 | 190 | 0.0 | 3.2 | 0.00 | 0.00 | 0.00 | 82 | 1008.0 |
| 20260509023455 | 22 | 356 | 0.0 | 6.4 | 0.00 | 0.00 | 0.00 | 81 | 1007.8 |
| 20260509022953 | 22 | 154 | 0.0 | 6.4 | 0.00 | 0.00 | 0.00 | 81 | 1007.6 |
| 20260509022450 | 22 | 175 | 0.0 | 6.4 | 0.00 | 0.00 | 0.00 | 81 | 1007.7 |
| 20260509021950 | 22 | 195 | 0.0 | 4.8 | 0.00 | 0.00 | 0.00 | 80 | 1007.7 |
| 20260509021454 | 23 | 252 | 1.6 | 4.8 | 0.00 | 0.00 | 0.00 | 80 | 1007.6 |
| 20260509021450 | 22 | 169 | 0.0 | 4.8 | 0.00 | 0.00 | 0.00 | 80 | 1007.8 |
| 20260509020446 | 23 | 155 | 0.0 | 6.4 | 0.00 | 0.00 | 0.00 | 79 | 1007.4 |
| 20260509015946 | 23 | 181 | 0.0 | 6.4 | 0.00 | 0.00 | 0.00 | 79 | 1007.5 |
| 20260509015448 | 23 | 229 | 0.0 | 4.8 | 0.00 | 0.00 | 0.00 | 79 | 1007.6 |
| 20260509014947 | 23 | 224 | 0.0 | 1.6 | 0.00 | 0.00 | 0.00 | 79 | 1007.7 |
| 20260509014446 | 23 | 159 | 0.0 | 0.0 | 0.00 | 0.00 | 0.00 | 79 | 1007.9 |
| 20260509013945 | 23 | 210 | 0.0 | 3.2 | 0.00 | 0.00 | 0.00 | 79 | 1007.9 |
| 20260509013444 | 23 | 13 | 0.0 | 3.2 | 0.00 | 0.00 | 0.00 | 79 | 1007.9 |
| 20260509012944 | 23 | 181 | 0.0 | 0.0 | 0.00 | 0.00 | 0.00 | 79 | 1007.8 |
| 20260509012443 | 23 | 169 | 0.0 | 0.0 | 0.00 | 0.00 | 0.00 | 78 | 1007.9 |
| 20260509011943 | 23 | 216 | 0.0 | 1.6 | 0.00 | 0.00 | 0.00 | 78 | 1007.9 |
| 20260509011442 | 23 | 148 | 0.0 | 1.6 | 0.00 | 0.00 | 0.00 | 78 | 1008.0 |
| 20260509010942 | 23 | 224 | 0.0 | 3.2 | 0.00 | 0.00 | 0.00 | 78 | 1007.8 |
| 20260509010441 | 23 | 283 | 0.0 | 3.2 | 0.00 | 0.00 | 0.00 | 78 | 1007.7 |
| 20260509005940 | 23 | 214 | 0.0 | 6.4 | 0.00 | 0.00 | 0.00 | 77 | 1007.6 |
| 20260509005445 | 23 | 243 | 0.0 | 6.4 | 0.00 | 0.00 | 0.00 | 77 | 1007.4 |
| 20260509005441 | 23 | 193 | 0.0 | 6.4 | 0.00 | 0.00 | 0.00 | 77 | 1007.4 |
| 20260509004438 | 23 | 193 | 0.0 | 8.0 | 0.00 | 0.00 | 0.00 | 76 | 1007.4 |
| 20260509003938 | 23 | 251 | 1.6 | 9.7 | 0.00 | 0.00 | 0.00 | 76 | 1007.4 |
| 20260509003436 | 23 | 237 | 1.6 | 9.7 | 0.00 | 0.00 | 0.00 | 76 | 1007.3 |
| 20260509002936 | 23 | 227 | 1.6 | 9.7 | 0.00 | 0.00 | 0.00 | 76 | 1007.2 |
| 20260509002436 | 23 | 224 | 1.6 | 9.7 | 0.00 | 0.00 | 0.00 | 75 | 1007.2 |
| 20260509001938 | 23 | 288 | 1.6 | 8.0 | 0.00 | 0.00 | 0.00 | 75 | 1007.2 |
| 20260509001437 | 23 | 231 | 1.6 | 9.7 | 0.00 | 0.00 | 0.00 | 75 | 1007.3 |
| 20260509000934 | 23 | 83 | 1.6 | 9.7 | 0.00 | 0.00 | 0.00 | 74 | 1007.2 |
| 20260509000434 | 23 | 236 | 0.0 | 6.4 | 0.00 | 0.00 | 0.00 | 74 | 1007.3 |
| 20260508235933 | 23 | 214 | 0.0 | 8.0 | 0.00 | 0.00 | 0.00 | 74 | 1007.4 |
| 20260508235438 | 23 | 144 | 1.6 | 6.4 | 0.00 | 0.00 | 0.00 | 74 | 1007.5 |
| 20260508235432 | 23 | 232 | 0.0 | 8.0 | 0.00 | 0.00 | 0.00 | 74 | 1007.4 |
| 20260508234434 | 23 | 216 | 1.6 | 6.4 | 0.00 | 0.00 | 0.00 | 73 | 1007.5 |
| 20260508233932 | 24 | 217 | 1.6 | 6.4 | 0.00 | 0.00 | 0.00 | 72 | 1007.6 |
| 20260508233432 | 24 | 219 | 1.6 | 6.4 | 0.00 | 0.00 | 0.00 | 72 | 1007.7 |
| 20260508232936 | 24 | 216 | 0.0 | 9.7 | 0.00 | 0.00 | 0.00 | 70 | 1007.7 |
| 20260508232932 | 24 | 222 | 1.6 | 9.7 | 0.00 | 0.00 | 0.00 | 71 | 1007.7 |
| 20260508231932 | 25 | 229 | 1.6 | 11.3 | 0.00 | 0.00 | 0.00 | 70 | 1007.8 |
| 20260508231432 | 25 | 249 | 1.6 | 11.3 | 0.00 | 0.00 | 0.00 | 69 | 1007.8 |
| 20260508230931 | 25 | 295 | 1.6 | 8.0 | 0.00 | 0.00 | 0.00 | 69 | 1007.7 |
| 20260508230435 | 26 | 74 | 0.0 | 6.4 | 0.00 | 0.00 | 0.00 | 66 | 1007.7 |
| 20260508230431 | 25 | 286 | 1.6 | 6.4 | 0.00 | 0.00 | 0.00 | 67 | 1007.8 |
| 20260508225430 | 26 | 229 | 0.0 | 6.4 | 0.00 | 0.00 | 0.00 | 65 | 1007.8 |
| 20260508224931 | 26 | 303 | 0.0 | 6.4 | 0.00 | 0.00 | 0.00 | 65 | 1007.6 |
| 20260508224434 | 26 | 210 | 0.0 | 4.8 | 0.00 | 0.00 | 0.00 | 65 | 1007.8 |
| 20260508224430 | 26 | 293 | 0.0 | 4.8 | 0.00 | 0.00 | 0.00 | 64 | 1007.8 |
| 20260508223434 | 26 | 122 | 0.0 | 9.7 | 0.00 | 0.00 | 0.00 | 63 | 1007.7 |
| 20260508223430 | 26 | 209 | 0.0 | 4.8 | 0.00 | 0.00 | 0.00 | 64 | 1007.8 |
| 20260508223045 | 26 | 119 | 0.0 | 9.7 | 0.00 | 0.00 | 0.00 | 64 | 1007.7 |
| 20260508222542 | 26 | 153 | 1.6 | 9.7 | 0.00 | 0.00 | 0.00 | 64 | 1007.8 |
| 20260508221428 | 26 | 37 | 0.0 | 9.7 | 0.00 | 0.00 | 0.00 | 64 | 1007.9 |
| 20260508220932 | 26 | 264 | 1.6 | 9.7 | 0.00 | 0.00 | 0.00 | 63 | 1007.8 |
| 20260508220928 | 26 | 329 | 1.6 | 9.7 | 0.00 | 0.00 | 0.00 | 63 | 1007.8 |
| 20260508215928 | 26 | 205 | 1.6 | 11.3 | 0.00 | 0.00 | 0.00 | 63 | 1007.8 |
| 20260508215428 | 26 | 79 | 1.6 | 11.3 | 0.00 | 0.00 | 0.00 | 61 | 1008.0 |
| 20260508214929 | 26 | 219 | 1.6 | 8.0 | 0.00 | 0.00 | 0.00 | 61 | 1008.0 |
| 20260508214428 | 26 | 249 | 1.6 | 8.0 | 0.00 | 0.00 | 0.00 | 60 | 1008.0 |
| 20260508213928 | 26 | 202 | 1.6 | 14.5 | 0.00 | 0.00 | 0.00 | 62 | 1008.1 |
| 20260508213433 | 26 | 271 | 1.6 | 14.5 | 0.00 | 0.00 | 0.00 | 59 | 1008.1 |
| 20260508213429 | 26 | 143 | 1.6 | 14.5 | 0.00 | 0.00 | 0.00 | 61 | 1008.1 |
| 20260508212426 | 26 | 60 | 1.6 | 9.7 | 0.00 | 0.00 | 0.00 | 61 | 1008.2 |
| 20260508211930 | 26 | 68 | 0.0 | 8.0 | 0.00 | 0.00 | 0.00 | 61 | 1008.4 |
| 20260508211926 | 26 | 238 | 0.0 | 9.7 | 0.00 | 0.00 | 0.00 | 60 | 1008.3 |
| 20260508211540 | 25 | 103 | 1.6 | 8.0 | 0.00 | 0.00 | 0.00 | 64 | 1008.4 |
| 20260508210428 | 25 | 49 | 1.6 | 8.0 | 0.00 | 0.00 | 0.00 | 63 | 1008.7 |
| 20260508205927 | 25 | 39 | 1.6 | 11.3 | 0.00 | 0.00 | 0.00 | 62 | 1008.7 |
| 20260508205430 | 25 | 3 | 0.0 | 8.0 | 0.00 | 0.00 | 0.00 | 62 | 1008.7 |
| 20260508205426 | 25 | 250 | 1.6 | 11.3 | 0.00 | 0.00 | 0.00 | 62 | 1008.8 |
| 20260508204425 | 25 | 227 | 0.0 | 8.0 | 0.00 | 0.00 | 0.00 | 64 | 1008.6 |
| 20260508203924 | 24 | 309 | 0.0 | 6.4 | 0.00 | 0.00 | 0.00 | 64 | 1008.6 |
| 20260508203424 | 23 | 13 | 0.0 | 6.4 | 0.00 | 0.00 | 0.00 | 67 | 1008.5 |
| 20260508202924 | 23 | 52 | 0.0 | 6.4 | 0.00 | 0.00 | 0.00 | 67 | 1009.1 |
| 20260508202423 | 23 | 338 | 0.0 | 3.2 | 0.00 | 0.00 | 0.00 | 69 | 1009.4 |
| 20260508201923 | 22 | 122 | 0.0 | 8.0 | 0.00 | 0.00 | 0.00 | 68 | 1009.6 |
| 20260508201424 | 23 | 180 | 0.0 | 8.0 | 0.00 | 0.00 | 0.00 | 67 | 1009.9 |
| 20260508200925 | 23 | 60 | 0.0 | 8.0 | 0.00 | 0.00 | 0.00 | 67 | 1010.0 |
| 20260508200424 | 23 | 227 | 1.6 | 8.0 | 0.00 | 0.00 | 0.00 | 66 | 1010.5 |
| 20260508195923 | 23 | 189 | 1.6 | 6.4 | 0.00 | 0.00 | 0.00 | 65 | 1010.3 |
| 20260508195423 | 23 | 226 | 1.6 | 8.0 | 0.00 | 0.00 | 0.00 | 64 | 1010.3 |
| 20260508194921 | 24 | 197 | 1.6 | 8.0 | 0.00 | 0.00 | 0.00 | 64 | 1010.3 |
| 20260508194422 | 24 | 214 | 1.6 | 8.0 | 0.00 | 0.00 | 0.00 | 63 | 1010.2 |
| 20260508193922 | 25 | 312 | 1.6 | 8.0 | 0.00 | 0.00 | 0.00 | 62 | 1010.2 |
| 20260508193422 | 25 | 187 | 1.6 | 8.0 | 0.00 | 0.00 | 0.00 | 64 | 1010.1 |
| 20260508192923 | 25 | 184 | 1.6 | 9.7 | 0.00 | 0.00 | 0.00 | 65 | 1010.2 |
| 20260508192422 | 24 | 217 | 1.6 | 9.7 | 0.00 | 0.00 | 0.00 | 65 | 1010.2 |
| 20260508191922 | 24 | 254 | 3.2 | 14.5 | 0.00 | 0.00 | 0.00 | 65 | 1010.3 |
| 20260508191426 | 25 | 196 | 1.6 | 8.0 | 0.00 | 0.00 | 0.00 | 64 | 1010.3 |
| 20260508191422 | 24 | 223 | 1.6 | 14.5 | 0.00 | 0.00 | 0.00 | 63 | 1010.3 |
| 20260508190420 | 25 | 278 | 1.6 | 6.4 | 0.00 | 0.00 | 0.00 | 64 | 1010.3 |
| 20260508185921 | 25 | 250 | 1.6 | 8.0 | 0.00 | 0.00 | 0.00 | 63 | 1010.4 |
| 20260508185421 | 25 | 255 | 1.6 | 8.0 | 0.00 | 0.00 | 0.00 | 63 | 1010.4 |
| 20260508184921 | 25 | 207 | 1.6 | 8.0 | 0.00 | 0.00 | 0.00 | 63 | 1010.4 |
| 20260508184426 | 25 | 122 | 1.6 | 6.4 | 0.00 | 0.00 | 0.00 | 62 | 1010.6 |
| 20260508184420 | 25 | 212 | 1.6 | 6.4 | 0.00 | 0.00 | 0.00 | 62 | 1010.5 |
| 20260508183418 | 25 | 212 | 1.6 | 9.7 | 0.00 | 0.00 | 0.00 | 62 | 1010.7 |
| 20260508182918 | 25 | 221 | 1.6 | 9.7 | 0.00 | 0.00 | 0.00 | 59 | 1010.7 |
| 20260508182419 | 25 | 281 | 1.6 | 8.0 | 0.00 | 0.00 | 0.00 | 61 | 1010.7 |
| 20260508181919 | 25 | 241 | 0.0 | 6.4 | 0.00 | 0.00 | 0.00 | 61 | 1010.7 |
| 20260508181418 | 25 | 79 | 0.0 | 4.8 | 0.00 | 0.00 | 0.00 | 62 | 1010.7 |
| 20260508180923 | 25 | 229 | 1.6 | 8.0 | 0.00 | 0.00 | 0.00 | 60 | 1011.0 |
| 20260508180918 | 25 | 52 | 1.6 | 4.8 | 0.00 | 0.00 | 0.00 | 62 | 1010.8 |
| 20260508175917 | 25 | 221 | 1.6 | 8.0 | 0.00 | 0.00 | 0.00 | 60 | 1011.1 |
| 20260508175419 | 25 | 250 | 1.6 | 9.7 | 0.00 | 0.00 | 0.00 | 60 | 1011.3 |
| 20260508174917 | 25 | 8 | 1.6 | 9.7 | 0.00 | 0.00 | 0.00 | 59 | 1011.3 |
| 20260508174418 | 25 | 202 | 1.6 | 9.7 | 0.00 | 0.00 | 0.00 | 61 | 1011.4 |